Time,TemperatureF,DewpointF,PressureIn,WindDirection,WindDirectionDegrees,WindSpeedMPH,WindSpeedGustMPH,Humidity,HourlyPrecipIn,Conditions,Clouds,dailyrainin,SoftwareType,DateUTC
2013-01-07 00:00:00,61.1,60.0,30.16,North,355,2.0,8.0,96,0.00,,OVC005,0.24,VWS V14.01,2013-01-07 05:00:00,
2013-01-07 00:03:00,61.1,60.0,30.16,NE,34,0.0,6.0,96,0.00,,OVC005,0.00,VWS V14.01,2013-01-07 05:03:00,
2013-01-07 00:08:00,61.0,59.9,30.16,NE,37,0.0,6.0,96,0.00,,OVC005,0.00,VWS V14.01,2013-01-07 05:08:00,
2013-01-07 00:13:00,61.0,59.9,30.15,NNW,345,6.0,6.0,96,0.00,,OVC005,0.00,VWS V14.01,2013-01-07 05:13:00,
2013-01-07 00:18:00,60.9,59.8,30.15,North,7,0.0,10.0,96,0.00,,OVC005,0.00,VWS V14.01,2013-01-07 05:18:00,
2013-01-07 00:23:00,60.8,59.7,30.15,NNW,327,4.0,10.0,96,0.00,,OVC005,0.00,VWS V14.01,2013-01-07 05:23:00,
2013-01-07 00:28:00,60.7,59.6,30.15,North,355,2.0,14.0,96,0.00,,OVC005,0.00,VWS V14.01,2013-01-07 05:28:00,
2013-01-07 00:33:00,60.7,59.6,30.15,NNE,18,0.0,14.0,96,0.00,,OVC005,0.00,VWS V14.01,2013-01-07 05:33:00,
2013-01-07 00:38:00,60.6,59.5,30.15,WNW,285,6.0,8.0,96,0.00,,OVC005,0.00,VWS V14.01,2013-01-07 05:38:00,
2013-01-07 00:43:00,60.5,59.4,30.15,North,355,2.0,8.0,96,0.00,,OVC005,0.00,VWS V14.01,2013-01-07 05:43:00,
2013-01-07 00:49:00,60.5,59.4,30.15,North,6,4.0,8.0,96,0.00,,OVC005,0.00,VWS V14.01,2013-01-07 05:49:00,
2013-01-07 00:54:00,60.5,59.4,30.15,NNW,345,4.0,6.0,96,0.00,,OVC005,0.00,VWS V14.01,2013-01-07 05:54:00,
2013-01-07 00:59:00,60.4,59.3,30.15,NW,313,4.0,8.0,96,0.00,,OVC005,0.00,VWS V14.01,2013-01-07 05:59:00,
2013-01-07 01:04:00,60.4,59.3,30.15,NW,322,2.0,10.0,96,0.00,,OVC005,0.00,VWS V14.01,2013-01-07 06:04:00,
2013-01-07 01:09:00,60.4,59.3,30.15,NW,325,4.0,10.0,96,0.00,,OVC005,0.00,VWS V14.01,2013-01-07 06:09:00,
2013-01-07 01:14:00,60.3,59.2,30.15,NW,325,0.0,4.0,96,0.00,,OVC005,0.00,VWS V14.01,2013-01-07 06:14:00,
2013-01-07 01:19:00,60.3,59.2,30.15,NW,324,2.0,6.0,96,0.00,,OVC005,0.00,VWS V14.01,2013-01-07 06:19:00,
2013-01-07 01:24:00,60.3,59.2,30.14,North,1,0.0,2.0,96,0.00,,OVC005,0.00,VWS V14.01,2013-01-07 06:24:00,
2013-01-07 01:30:00,60.3,59.2,30.15,North,1,0.0,2.0,96,0.00,,OVC005,0.00,VWS V14.01,2013-01-07 06:30:00,
2013-01-07 01:35:00,60.4,59.3,30.15,North,6,2.0,4.0,96,0.00,,OVC005,0.00,VWS V14.01,2013-01-07 06:35:00,
2013-01-07 01:40:00,60.3,59.2,30.15,North,6,0.0,4.0,96,0.00,,OVC005,0.00,VWS V14.01,2013-01-07 06:40:00,
2013-01-07 01:45:00,60.3,59.2,30.15,North,3,2.0,6.0,96,0.00,,OVC005,0.00,VWS V14.01,2013-01-07 06:45:00,
2013-01-07 01:50:00,60.3,59.2,30.14,North,350,0.0,0.0,96,0.00,,OVC005,0.00,VWS V14.01,2013-01-07 06:50:00,
2013-01-07 01:55:00,60.3,59.2,30.13,North,350,0.0,0.0,96,0.00,,OVC005,0.00,VWS V14.01,2013-01-07 06:55:00,
2013-01-07 02:00:00,60.4,59.3,30.14,North,1,2.0,2.0,96,0.00,,OVC005,0.00,VWS V14.01,2013-01-07 07:00:00,
2013-01-07 02:05:00,60.4,59.3,30.14,North,1,0.0,4.0,96,0.00,,OVC030,0.00,VWS V14.01,2013-01-07 07:05:00,
2013-01-07 02:10:00,60.4,59.3,30.14,NNW,329,4.0,6.0,96,0.00,,OVC030,0.00,VWS V14.01,2013-01-07 07:10:00,
2013-01-07 02:15:00,60.3,59.2,30.15,NNW,345,4.0,6.0,96,0.00,,OVC030,0.00,VWS V14.01,2013-01-07 07:15:00,
2013-01-07 02:21:00,60.3,59.2,30.15,North,3,6.0,10.0,96,0.00,,OVC030,0.00,VWS V14.01,2013-01-07 07:21:00,
2013-01-07 02:26:00,60.2,59.1,30.14,NNW,328,10.0,10.0,96,0.00,,OVC030,0.00,VWS V14.01,2013-01-07 07:26:00,
2013-01-07 02:31:00,60.2,59.1,30.14,NNE,30,0.0,6.0,96,0.00,,OVC030,0.00,VWS V14.01,2013-01-07 07:31:00,
2013-01-07 02:36:00,60.1,59.0,30.14,NNW,345,0.0,4.0,96,0.00,,OVC030,0.00,VWS V14.01,2013-01-07 07:36:00,
2013-01-07 02:41:00,60.1,59.0,30.15,NW,317,0.0,6.0,96,0.00,,OVC030,0.00,VWS V14.01,2013-01-07 07:41:00,
2013-01-07 02:46:00,60.1,59.0,30.14,NW,307,2.0,2.0,96,0.00,,OVC030,0.00,VWS V14.01,2013-01-07 07:46:00,
2013-01-07 02:51:00,60.1,59.0,30.14,North,355,4.0,8.0,96,0.00,,OVC030,0.00,VWS V14.01,2013-01-07 07:51:00,
2013-01-07 02:57:00,60.0,58.9,30.14,North,1,0.0,6.0,96,0.00,,OVC030,0.00,VWS V14.01,2013-01-07 07:57:00,
2013-01-07 03:02:00,60.0,58.9,30.15,NNW,338,2.0,6.0,96,0.00,,OVC007,0.00,VWS V14.01,2013-01-07 08:02:00,
2013-01-07 03:07:00,59.9,58.8,30.14,NNW,340,4.0,4.0,96,0.00,,OVC007,0.00,VWS V14.01,2013-01-07 08:07:00,
2013-01-07 03:12:00,59.9,58.8,30.14,NNW,345,0.0,4.0,96,0.00,,OVC007,0.00,VWS V14.01,2013-01-07 08:12:00,
2013-01-07 03:17:00,59.9,58.8,30.14,NNW,345,0.0,0.0,96,0.00,,OVC007,0.00,VWS V14.01,2013-01-07 08:17:00,
2013-01-07 03:22:00,59.9,58.8,30.14,North,350,4.0,4.0,96,0.00,,OVC007,0.00,VWS V14.01,2013-01-07 08:22:00,
2013-01-07 03:27:00,59.8,58.4,30.14,North,7,6.0,8.0,95,0.00,,OVC007,0.00,VWS V14.01,2013-01-07 08:27:00,
2013-01-07 03:32:00,59.8,58.4,30.14,NNE,13,4.0,8.0,95,0.00,,OVC007,0.00,VWS V14.01,2013-01-07 08:32:00,
2013-01-07 03:37:00,59.8,58.4,30.14,North,0,0.0,6.0,95,0.00,,OVC007,0.00,VWS V14.01,2013-01-07 08:37:00,
2013-01-07 03:43:00,59.8,58.7,30.14,NNW,333,0.0,10.0,96,0.00,,OVC007,0.00,VWS V14.01,2013-01-07 08:43:00,
2013-01-07 03:48:00,59.9,58.8,30.14,NNW,345,2.0,2.0,96,0.00,,OVC007,0.00,VWS V14.01,2013-01-07 08:48:00,
2013-01-07 03:53:00,59.9,58.8,30.14,North,350,0.0,4.0,96,0.00,,OVC007,0.00,VWS V14.01,2013-01-07 08:53:00,
2013-01-07 03:58:00,59.8,58.4,30.14,North,2,4.0,10.0,95,0.00,,OVC007,0.00,VWS V14.01,2013-01-07 08:58:00,
2013-01-07 04:03:00,59.8,58.4,30.14,NNW,345,0.0,10.0,95,0.00,,OVC007,0.00,VWS V14.01,2013-01-07 09:03:00,
2013-01-07 04:08:00,59.8,58.4,30.15,North,355,2.0,8.0,95,0.00,,OVC007,0.00,VWS V14.01,2013-01-07 09:08:00,
2013-01-07 04:13:00,59.8,58.4,30.15,NW,323,6.0,12.0,95,0.00,,OVC007,0.00,VWS V14.01,2013-01-07 09:13:00,
2013-01-07 04:18:00,59.7,58.3,30.15,North,355,0.0,6.0,95,0.00,,OVC007,0.00,VWS V14.01,2013-01-07 09:18:00,
2013-01-07 04:23:00,59.7,58.3,30.15,NNW,345,4.0,10.0,95,0.00,,OVC007,0.00,VWS V14.01,2013-01-07 09:23:00,
2013-01-07 04:29:00,59.6,58.2,30.15,North,6,4.0,6.0,95,0.00,,OVC007,0.00,VWS V14.01,2013-01-07 09:29:00,
2013-01-07 04:34:00,59.6,58.2,30.15,North,7,6.0,8.0,95,0.00,,OVC007,0.00,VWS V14.01,2013-01-07 09:34:00,
2013-01-07 04:39:00,59.5,57.8,30.15,NW,313,6.0,8.0,94,0.00,,OVC007,0.00,VWS V14.01,2013-01-07 09:39:00,
2013-01-07 04:44:00,59.5,57.8,30.15,North,0,4.0,8.0,94,0.00,,OVC007,0.00,VWS V14.01,2013-01-07 09:44:00,
2013-01-07 04:49:00,59.4,57.7,30.15,North,355,0.0,10.0,94,0.00,,OVC007,0.00,VWS V14.01,2013-01-07 09:49:00,
2013-01-07 04:54:00,59.3,57.6,30.14,NNW,338,4.0,4.0,94,0.00,,OVC007,0.00,VWS V14.01,2013-01-07 09:54:00,
2013-01-07 04:59:00,59.2,57.2,30.15,North,350,10.0,14.0,93,0.00,,OVC007,0.00,VWS V14.01,2013-01-07 09:59:00,
2013-01-07 05:04:00,59.1,57.1,30.16,North,9,2.0,10.0,93,0.00,,OVC016,0.00,VWS V14.01,2013-01-07 10:04:00,
2013-01-07 05:09:00,59.0,57.0,30.16,North,7,0.0,8.0,93,0.00,,OVC016,0.00,VWS V14.01,2013-01-07 10:09:00,
2013-01-07 05:14:00,58.9,56.9,30.16,NNE,16,2.0,10.0,93,0.00,,OVC016,0.00,VWS V14.01,2013-01-07 10:14:00,
2013-01-07 05:20:00,58.8,56.5,30.16,NW,323,2.0,10.0,92,0.00,,OVC016,0.00,VWS V14.01,2013-01-07 10:20:00,
2013-01-07 05:25:00,58.6,56.3,30.17,NW,317,8.0,16.0,92,0.00,,OVC016,0.00,VWS V14.01,2013-01-07 10:25:00,
2013-01-07 05:30:00,58.4,55.8,30.17,North,3,2.0,2.0,91,0.00,,OVC016,0.00,VWS V14.01,2013-01-07 10:30:00,
2013-01-07 05:35:00,58.3,55.7,30.17,North,350,4.0,4.0,91,0.00,,OVC016,0.00,VWS V14.01,2013-01-07 10:35:00,
2013-01-07 05:40:00,58.2,55.9,30.17,North,355,2.0,2.0,92,0.00,,OVC016,0.00,VWS V14.01,2013-01-07 10:40:00,
2013-01-07 05:45:00,58.1,55.8,30.17,North,2,2.0,2.0,92,0.00,,OVC016,0.00,VWS V14.01,2013-01-07 10:45:00,
2013-01-07 05:50:00,58.0,55.7,30.17,North,2,0.0,0.0,92,0.00,,OVC016,0.00,VWS V14.01,2013-01-07 10:50:00,
2013-01-07 05:55:00,57.9,55.6,30.17,NNW,334,0.0,2.0,92,0.00,,OVC016,0.00,VWS V14.01,2013-01-07 10:55:00,
2013-01-07 06:00:00,57.8,55.5,30.16,NNW,334,0.0,0.0,92,0.00,,OVC010,0.00,VWS V14.01,2013-01-07 11:00:00,
2013-01-07 06:05:00,57.6,55.6,30.17,North,350,2.0,2.0,93,0.00,,OVC010,0.00,VWS V14.01,2013-01-07 11:05:00,
2013-01-07 06:10:00,57.5,55.2,30.17,NNW,345,0.0,2.0,92,0.00,,OVC010,0.00,VWS V14.01,2013-01-07 11:10:00,
2013-01-07 06:16:00,57.4,55.1,30.18,North,350,4.0,6.0,92,0.00,,OVC010,0.00,VWS V14.01,2013-01-07 11:16:00,
2013-01-07 06:21:00,57.2,54.6,30.18,NW,315,0.0,6.0,91,0.00,,OVC010,0.00,VWS V14.01,2013-01-07 11:21:00,
2013-01-07 06:26:00,57.1,54.2,30.19,North,355,4.0,10.0,90,0.00,,OVC010,0.00,VWS V14.01,2013-01-07 11:26:00,
2013-01-07 06:31:00,57.0,53.8,30.19,NNE,22,2.0,10.0,89,0.00,,OVC010,0.00,VWS V14.01,2013-01-07 11:31:00,
2013-01-07 06:36:00,56.9,53.7,30.19,NW,317,2.0,10.0,89,0.00,,OVC010,0.00,VWS V14.01,2013-01-07 11:36:00,
2013-01-07 06:41:00,56.8,53.6,30.19,NNE,30,6.0,8.0,89,0.00,,OVC010,0.00,VWS V14.01,2013-01-07 11:41:00,
2013-01-07 06:46:00,56.7,53.5,30.19,North,4,12.0,12.0,89,0.00,,OVC010,0.00,VWS V14.01,2013-01-07 11:46:00,
2013-01-07 06:51:00,56.7,53.5,30.19,NNW,331,0.0,12.0,89,0.00,,OVC010,0.00,VWS V14.01,2013-01-07 11:51:00,
2013-01-07 06:56:00,56.6,53.4,30.20,WNW,296,2.0,4.0,89,0.00,,OVC010,0.00,VWS V14.01,2013-01-07 11:56:00,
2013-01-07 07:01:00,56.6,53.1,30.20,North,6,0.0,8.0,88,0.00,,OVC020,0.00,VWS V14.01,2013-01-07 12:01:00,
2013-01-07 07:06:00,56.5,53.3,30.20,NW,317,2.0,6.0,89,0.00,,OVC020,0.00,VWS V14.01,2013-01-07 12:06:00,
2013-01-07 07:11:00,56.5,53.0,30.21,NNW,327,6.0,16.0,88,0.00,,OVC020,0.00,VWS V14.01,2013-01-07 12:11:00,
2013-01-07 07:16:00,56.4,52.9,30.21,NNE,24,4.0,12.0,88,0.00,,OVC020,0.00,VWS V14.01,2013-01-07 12:16:00,
2013-01-07 07:21:00,56.4,52.9,30.21,North,11,4.0,6.0,88,0.00,,OVC020,0.00,VWS V14.01,2013-01-07 12:21:00,
2013-01-07 07:26:00,56.3,52.8,30.21,NNW,340,8.0,12.0,88,0.00,,OVC020,0.00,VWS V14.01,2013-01-07 12:26:00,
2013-01-07 07:31:00,56.3,52.8,30.21,NNW,345,4.0,6.0,88,0.00,,OVC020,0.00,VWS V14.01,2013-01-07 12:31:00,
2013-01-07 07:36:00,56.2,52.7,30.21,NNE,20,4.0,4.0,88,0.00,,OVC020,0.00,VWS V14.01,2013-01-07 12:36:00,
2013-01-07 07:41:00,56.2,52.4,30.21,WNW,303,12.0,12.0,87,0.00,,OVC020,0.00,VWS V14.01,2013-01-07 12:41:00,
2013-01-07 07:46:00,56.0,52.2,30.20,North,4,0.0,8.0,87,0.00,,OVC020,0.00,VWS V14.01,2013-01-07 12:46:00,
2013-01-07 07:52:00,56.0,52.5,30.21,WNW,289,2.0,2.0,88,0.00,,OVC020,0.00,VWS V14.01,2013-01-07 12:52:00,
2013-01-07 07:57:00,56.0,52.5,30.22,West,276,2.0,6.0,88,0.00,,OVC020,0.00,VWS V14.01,2013-01-07 12:57:00,
2013-01-07 08:02:00,56.0,52.5,30.22,North,1,2.0,8.0,88,0.00,,OVC020,0.00,VWS V14.01,2013-01-07 13:02:00,
2013-01-07 08:07:00,56.0,52.2,30.23,NNW,338,4.0,12.0,87,0.00,,OVC020,0.00,VWS V14.01,2013-01-07 13:07:00,
2013-01-07 08:12:00,56.1,52.3,30.23,WNW,287,2.0,8.0,87,0.00,,OVC020,0.00,VWS V14.01,2013-01-07 13:12:00,
2013-01-07 08:17:00,56.2,52.4,30.22,NW,314,4.0,8.0,87,0.00,,OVC020,0.00,VWS V14.01,2013-01-07 13:17:00,
2013-01-07 08:22:00,56.2,52.4,30.22,North,355,2.0,10.0,87,0.00,,OVC020,0.00,VWS V14.01,2013-01-07 13:22:00,
2013-01-07 08:27:00,56.3,52.5,30.23,North,5,2.0,10.0,87,0.00,,OVC020,0.00,VWS V14.01,2013-01-07 13:27:00,
2013-01-07 08:33:00,56.4,52.6,30.23,NNE,13,0.0,8.0,87,0.00,,OVC020,0.00,VWS V14.01,2013-01-07 13:33:00,
2013-01-07 08:38:00,56.4,52.6,30.23,NNE,22,6.0,12.0,87,0.00,,OVC020,0.00,VWS V14.01,2013-01-07 13:38:00,
2013-01-07 08:43:00,56.6,52.8,30.23,NE,48,4.0,10.0,87,0.00,,OVC020,0.00,VWS V14.01,2013-01-07 13:43:00,
2013-01-07 08:48:00,56.7,52.9,30.23,North,5,2.0,12.0,87,0.00,,OVC020,0.00,VWS V14.01,2013-01-07 13:48:00,
2013-01-07 08:53:00,56.8,53.0,30.23,NW,321,2.0,6.0,87,0.00,,OVC020,0.00,VWS V14.01,2013-01-07 13:53:00,
2013-01-07 08:58:00,56.9,53.1,30.23,NW,312,2.0,10.0,87,0.00,,OVC020,0.00,VWS V14.01,2013-01-07 13:58:00,
2013-01-07 09:03:00,56.9,53.1,30.23,North,355,2.0,8.0,87,0.00,,BKN060,0.00,VWS V14.01,2013-01-07 14:03:00,
2013-01-07 09:08:00,57.0,53.2,30.24,North,7,0.0,10.0,87,0.00,,BKN060,0.00,VWS V14.01,2013-01-07 14:08:00,
2013-01-07 09:13:00,57.1,53.0,30.24,NW,308,0.0,8.0,86,0.00,,BKN060,0.00,VWS V14.01,2013-01-07 14:13:00,
2013-01-07 09:19:00,57.3,53.2,30.24,NNW,329,2.0,10.0,86,0.00,,BKN060,0.00,VWS V14.01,2013-01-07 14:19:00,
2013-01-07 09:24:00,57.5,53.3,30.24,North,1,4.0,8.0,86,0.00,,BKN060,0.00,VWS V14.01,2013-01-07 14:24:00,
2013-01-07 09:29:00,57.7,53.5,30.24,North,0,0.0,6.0,86,0.00,,BKN060,0.00,VWS V14.01,2013-01-07 14:29:00,
2013-01-07 09:34:00,57.9,53.7,30.24,NNW,345,4.0,8.0,86,0.00,,BKN060,0.00,VWS V14.01,2013-01-07 14:34:00,
2013-01-07 09:39:00,58.1,53.6,30.23,NNW,345,0.0,8.0,85,0.00,,BKN060,0.00,VWS V14.01,2013-01-07 14:39:00,
2013-01-07 09:44:00,58.4,53.9,30.23,North,350,0.0,6.0,85,0.00,,BKN060,0.00,VWS V14.01,2013-01-07 14:44:00,
2013-01-07 09:49:00,58.6,54.1,30.23,NNW,330,0.0,10.0,85,0.00,,BKN060,0.00,VWS V14.01,2013-01-07 14:49:00,
2013-01-07 09:54:00,58.9,54.1,30.24,NNW,339,4.0,6.0,84,0.00,,BKN060,0.00,VWS V14.01,2013-01-07 14:54:00,
2013-01-07 09:59:00,59.3,54.8,30.24,North,355,0.0,4.0,85,0.00,,BKN060,0.00,VWS V14.01,2013-01-07 14:59:00,
2013-01-07 10:05:00,59.7,54.9,30.24,NNE,26,2.0,8.0,84,0.00,,BKN160,0.00,VWS V14.01,2013-01-07 15:05:00,
2013-01-07 10:10:00,60.1,54.9,30.24,NNE,16,4.0,8.0,83,0.00,,BKN160,0.00,VWS V14.01,2013-01-07 15:10:00,
2013-01-07 10:15:00,60.6,55.1,30.24,North,355,6.0,10.0,82,0.00,,BKN160,0.00,VWS V14.01,2013-01-07 15:15:00,
2013-01-07 10:20:00,61.0,55.1,30.23,NNE,33,6.0,10.0,81,0.00,,BKN160,0.00,VWS V14.01,2013-01-07 15:20:00,
2013-01-07 10:25:00,61.3,55.8,30.23,NNE,14,0.0,0.0,82,0.00,,BKN160,0.00,VWS V14.01,2013-01-07 15:25:00,
2013-01-07 10:30:00,61.6,55.7,30.23,North,3,4.0,4.0,81,0.00,,BKN160,0.00,VWS V14.01,2013-01-07 15:30:00,
2013-01-07 10:35:00,62.0,55.8,30.23,NE,49,4.0,4.0,80,0.00,,BKN160,0.00,VWS V14.01,2013-01-07 15:35:00,
2013-01-07 10:40:00,62.4,56.8,30.23,ENE,66,0.0,2.0,82,0.00,,BKN160,0.00,VWS V14.01,2013-01-07 15:40:00,
2013-01-07 10:45:00,63.0,56.7,30.23,NNE,19,8.0,8.0,80,0.00,,BKN160,0.00,VWS V14.01,2013-01-07 15:45:00,
2013-01-07 10:50:00,63.7,56.4,30.22,North,355,6.0,8.0,77,0.00,,BKN160,0.00,VWS V14.01,2013-01-07 15:50:00,
2013-01-07 10:56:00,64.0,56.7,30.22,ENE,61,4.0,4.0,77,0.00,,BKN160,0.00,VWS V14.01,2013-01-07 15:56:00,
2013-01-07 11:01:00,64.3,56.6,30.22,NNW,345,0.0,6.0,76,0.00,,BKN150,0.00,VWS V14.01,2013-01-07 16:01:00,
2013-01-07 11:06:00,64.7,56.6,30.22,North,355,6.0,6.0,75,0.00,,BKN150,0.00,VWS V14.01,2013-01-07 16:06:00,
2013-01-07 11:11:00,65.0,56.9,30.22,NNE,32,2.0,4.0,75,0.00,,BKN150,0.00,VWS V14.01,2013-01-07 16:11:00,
2013-01-07 11:16:00,65.2,56.7,30.21,North,355,2.0,6.0,74,0.00,,BKN150,0.00,VWS V14.01,2013-01-07 16:16:00,
2013-01-07 11:21:00,65.5,56.2,30.21,NNW,328,4.0,10.0,72,0.00,,BKN150,0.00,VWS V14.01,2013-01-07 16:21:00,
2013-01-07 11:26:00,65.9,56.6,30.21,NNE,22,0.0,4.0,72,0.00,,BKN150,0.00,VWS V14.01,2013-01-07 16:26:00,
2013-01-07 11:31:00,66.2,56.5,30.21,East,87,4.0,8.0,71,0.00,,BKN150,0.00,VWS V14.01,2013-01-07 16:31:00,
2013-01-07 11:37:00,66.7,56.6,30.21,NNE,15,4.0,4.0,70,0.00,,BKN150,0.00,VWS V14.01,2013-01-07 16:37:00,
2013-01-07 11:42:00,67.0,56.1,30.20,NNE,28,0.0,6.0,68,0.00,,BKN150,0.00,VWS V14.01,2013-01-07 16:42:00,
2013-01-07 11:47:00,67.3,56.8,30.20,ENE,59,4.0,4.0,69,0.00,,BKN150,0.00,VWS V14.01,2013-01-07 16:47:00,
2013-01-07 11:52:00,67.6,56.7,30.20,East,86,6.0,6.0,68,0.00,,BKN150,0.00,VWS V14.01,2013-01-07 16:52:00,
2013-01-07 11:57:00,68.0,57.1,30.19,WNW,288,2.0,8.0,68,0.00,,BKN150,0.00,VWS V14.01,2013-01-07 16:57:00,
2013-01-07 12:02:00,69.2,58.6,30.19,NE,41,2.0,6.0,69,0.00,,BKN150,0.00,VWS V14.01,2013-01-07 17:02:00,
2013-01-07 12:07:00,70.4,58.1,30.19,NNW,338,4.0,8.0,65,0.00,,BKN150,0.00,VWS V14.01,2013-01-07 17:07:00,
2013-01-07 12:12:00,71.0,57.8,30.19,NE,43,6.0,14.0,63,0.00,,BKN150,0.00,VWS V14.01,2013-01-07 17:12:00,
2013-01-07 12:17:00,71.5,58.3,30.18,NE,36,2.0,12.0,63,0.00,,BKN150,0.00,VWS V14.01,2013-01-07 17:17:00,
2013-01-07 12:23:00,71.7,58.5,30.18,NNE,30,2.0,10.0,63,0.00,,BKN150,0.00,VWS V14.01,2013-01-07 17:23:00,
2013-01-07 12:28:00,71.7,58.5,30.18,East,88,0.0,8.0,63,0.00,,BKN150,0.00,VWS V14.01,2013-01-07 17:28:00,
2013-01-07 12:33:00,71.8,58.1,30.18,North,350,6.0,10.0,62,0.00,,BKN150,0.00,VWS V14.01,2013-01-07 17:33:00,
2013-01-07 12:38:00,71.5,59.1,30.18,NE,55,4.0,4.0,65,0.00,,BKN150,0.00,VWS V14.01,2013-01-07 17:38:00,
2013-01-07 12:43:00,71.0,59.1,30.18,NNW,340,4.0,18.0,66,0.00,,BKN150,0.00,VWS V14.01,2013-01-07 17:43:00,
2013-01-07 12:48:00,70.6,58.3,30.18,North,3,4.0,18.0,65,0.00,,BKN150,0.00,VWS V14.01,2013-01-07 17:48:00,
2013-01-07 12:53:00,70.3,58.4,30.17,North,4,4.0,14.0,66,0.00,,BKN150,0.00,VWS V14.01,2013-01-07 17:53:00,
2013-01-07 12:58:00,70.1,58.7,30.17,North,350,2.0,8.0,67,0.00,,BKN150,0.00,VWS V14.01,2013-01-07 17:58:00,
2013-01-07 13:03:00,69.8,58.4,30.17,NNW,339,6.0,12.0,67,0.00,,BKN250,0.00,VWS V14.01,2013-01-07 18:03:00,
2013-01-07 13:09:00,69.3,57.9,30.17,NNE,16,8.0,12.0,67,0.00,,BKN250,0.00,VWS V14.01,2013-01-07 18:09:00,
2013-01-07 13:14:00,69.0,58.0,30.17,NE,43,6.0,12.0,68,0.00,,BKN250,0.00,VWS V14.01,2013-01-07 18:14:00,
2013-01-07 13:19:00,68.8,57.8,30.16,North,4,4.0,16.0,68,0.00,,BKN250,0.00,VWS V14.01,2013-01-07 18:19:00,
2013-01-07 13:24:00,68.6,58.0,30.16,NNE,12,8.0,22.0,69,0.00,,BKN250,0.00,VWS V14.01,2013-01-07 18:24:00,
2013-01-07 13:29:00,68.6,58.8,30.16,NNE,22,4.0,10.0,71,0.00,,BKN250,0.00,VWS V14.01,2013-01-07 18:29:00,
2013-01-07 13:34:00,68.7,58.5,30.16,NNW,328,6.0,10.0,70,0.00,,BKN250,0.00,VWS V14.01,2013-01-07 18:34:00,
2013-01-07 13:39:00,68.7,58.1,30.17,North,6,4.0,12.0,69,0.00,,BKN250,0.00,VWS V14.01,2013-01-07 18:39:00,
2013-01-07 13:44:00,68.8,58.2,30.16,North,10,2.0,14.0,69,0.00,,BKN250,0.00,VWS V14.01,2013-01-07 18:44:00,
2013-01-07 13:49:00,68.9,58.7,30.16,NNE,26,8.0,10.0,70,0.00,,BKN250,0.00,VWS V14.01,2013-01-07 18:49:00,
2013-01-07 13:55:00,69.0,58.8,30.16,North,9,2.0,16.0,70,0.00,,BKN250,0.00,VWS V14.01,2013-01-07 18:55:00,
2013-01-07 14:00:00,69.3,58.7,30.15,NNE,24,0.0,12.0,69,0.00,,BKN250,0.00,VWS V14.01,2013-01-07 19:00:00,
2013-01-07 14:05:00,69.4,59.2,30.15,NW,321,6.0,6.0,70,0.00,,BKN150,0.00,VWS V14.01,2013-01-07 19:05:00,
2013-01-07 14:10:00,69.3,58.7,30.15,NNE,19,4.0,12.0,69,0.00,,BKN150,0.00,VWS V14.01,2013-01-07 19:10:00,
2013-01-07 14:15:00,69.3,58.7,30.16,NW,311,6.0,6.0,69,0.00,,BKN150,0.00,VWS V14.01,2013-01-07 19:15:00,
2013-01-07 14:20:00,69.3,58.7,30.16,NNE,28,0.0,0.0,69,0.00,,BKN150,0.00,VWS V14.01,2013-01-07 19:20:00,
2013-01-07 14:25:00,69.4,59.6,30.16,North,1,2.0,2.0,71,0.00,,BKN150,0.00,VWS V14.01,2013-01-07 19:25:00,
2013-01-07 14:30:00,69.4,59.2,30.16,North,11,0.0,4.0,70,0.00,,BKN150,0.00,VWS V14.01,2013-01-07 19:30:00,
2013-01-07 14:35:00,69.3,59.5,30.15,ENE,78,2.0,2.0,71,0.00,,BKN150,0.00,VWS V14.01,2013-01-07 19:35:00,
2013-01-07 14:40:00,69.3,59.9,30.16,NE,45,2.0,2.0,72,0.00,,BKN150,0.00,VWS V14.01,2013-01-07 19:40:00,
2013-01-07 14:45:00,69.5,60.5,30.16,NE,35,2.0,2.0,73,0.00,,BKN150,0.00,VWS V14.01,2013-01-07 19:45:00,
2013-01-07 14:50:00,69.6,60.6,30.15,North,350,2.0,4.0,73,0.00,,BKN150,0.00,VWS V14.01,2013-01-07 19:50:00,
2013-01-07 14:56:00,69.7,60.7,30.16,North,10,2.0,4.0,73,0.00,,BKN150,0.00,VWS V14.01,2013-01-07 19:56:00,
2013-01-07 15:01:00,70.1,60.7,30.16,North,5,0.0,2.0,72,0.00,,BKN150,0.00,VWS V14.01,2013-01-07 20:01:00,
2013-01-07 15:06:00,70.2,60.4,30.16,North,5,4.0,6.0,71,0.00,,BKN150,0.00,VWS V14.01,2013-01-07 20:06:00,
2013-01-07 15:11:00,70.3,60.5,30.16,NE,45,2.0,10.0,71,0.00,,BKN150,0.00,VWS V14.01,2013-01-07 20:11:00,
2013-01-07 15:16:00,70.3,60.9,30.16,NNE,19,4.0,4.0,72,0.00,,BKN150,0.00,VWS V14.01,2013-01-07 20:16:00,
2013-01-07 15:21:00,70.5,61.0,30.16,North,4,2.0,8.0,72,0.00,,BKN150,0.00,VWS V14.01,2013-01-07 20:21:00,
2013-01-07 15:27:00,70.8,61.3,30.16,NNE,14,4.0,6.0,72,0.00,,BKN150,0.00,VWS V14.01,2013-01-07 20:27:00,
2013-01-07 15:32:00,70.5,61.0,30.16,NNE,18,0.0,4.0,72,0.00,,BKN150,0.00,VWS V14.01,2013-01-07 20:32:00,
2013-01-07 15:37:00,70.3,60.9,30.16,North,1,2.0,8.0,72,0.00,,BKN150,0.00,VWS V14.01,2013-01-07 20:37:00,
2013-01-07 15:42:00,70.0,60.6,30.17,NNW,328,4.0,4.0,72,0.00,,BKN150,0.00,VWS V14.01,2013-01-07 20:42:00,
2013-01-07 15:47:00,69.8,60.8,30.17,North,7,2.0,8.0,73,0.00,,BKN150,0.00,VWS V14.01,2013-01-07 20:47:00,
2013-01-07 15:52:00,69.6,60.2,30.16,ENE,57,4.0,12.0,72,0.00,,BKN150,0.00,VWS V14.01,2013-01-07 20:52:00,
2013-01-07 15:57:00,69.3,60.3,30.17,North,11,8.0,8.0,73,0.00,,BKN150,0.00,VWS V14.01,2013-01-07 20:57:00,
2013-01-07 16:03:00,69.1,60.1,30.17,NE,36,0.0,4.0,73,0.00,,OVC190,0.00,VWS V14.01,2013-01-07 21:03:00,
2013-01-07 16:08:00,68.9,60.3,30.17,NNE,18,2.0,6.0,74,0.00,,OVC190,0.00,VWS V14.01,2013-01-07 21:08:00,
2013-01-07 16:13:00,68.6,60.0,30.17,ENE,66,0.0,6.0,74,0.00,,OVC190,0.00,VWS V14.01,2013-01-07 21:13:00,
2013-01-07 16:18:00,68.6,60.4,30.17,North,355,0.0,4.0,75,0.00,,OVC190,0.00,VWS V14.01,2013-01-07 21:18:00,
2013-01-07 16:23:00,68.6,60.7,30.17,NNE,14,2.0,4.0,76,0.00,,OVC190,0.00,VWS V14.01,2013-01-07 21:23:00,
2013-01-07 16:28:00,68.6,60.4,30.17,NE,54,0.0,4.0,75,0.00,,OVC190,0.00,VWS V14.01,2013-01-07 21:28:00,
2013-01-07 16:33:00,68.5,60.3,30.17,NNE,18,4.0,4.0,75,0.00,,OVC090,0.00,VWS V14.01,2013-01-07 21:33:00,
2013-01-07 16:39:00,68.4,60.5,30.17,North,6,2.0,6.0,76,0.00,,OVC090,0.00,VWS V14.01,2013-01-07 21:39:00,
2013-01-07 16:44:00,68.2,60.3,30.18,NNE,24,0.0,6.0,76,0.00,,OVC090,0.00,VWS V14.01,2013-01-07 21:44:00,
2013-01-07 16:49:00,68.1,60.3,30.18,North,3,2.0,4.0,76,0.00,,OVC090,0.00,VWS V14.01,2013-01-07 21:49:00,
2013-01-07 16:54:00,68.0,60.2,30.18,North,7,2.0,4.0,76,0.00,,OVC090,0.00,VWS V14.01,2013-01-07 21:54:00,
2013-01-07 16:59:00,67.9,60.4,30.18,North,350,2.0,6.0,77,0.00,,OVC090,0.00,VWS V14.01,2013-01-07 21:59:00,
2013-01-07 17:04:00,67.8,60.3,30.18,NNW,345,0.0,6.0,77,0.00,,OVC065,0.00,VWS V14.01,2013-01-07 22:04:00,
2013-01-07 17:09:00,67.6,60.1,30.18,North,8,8.0,8.0,77,0.00,,OVC065,0.00,VWS V14.01,2013-01-07 22:09:00,
2013-01-07 17:14:00,67.5,60.4,30.18,NNW,345,0.0,6.0,78,0.00,,OVC065,0.00,VWS V14.01,2013-01-07 22:14:00,
2013-01-07 17:19:00,67.3,60.2,30.18,North,7,2.0,8.0,78,0.00,,OVC065,0.00,VWS V14.01,2013-01-07 22:19:00,
2013-01-07 17:24:00,67.2,60.5,30.19,North,6,0.0,6.0,79,0.00,,OVC065,0.00,VWS V14.01,2013-01-07 22:24:00,
2013-01-07 17:29:00,67.1,60.4,30.19,North,3,0.0,8.0,79,0.00,,OVC065,0.00,VWS V14.01,2013-01-07 22:29:00,
2013-01-07 17:34:00,67.0,60.3,30.18,North,359,0.0,6.0,79,0.00,,OVC065,0.00,VWS V14.01,2013-01-07 22:34:00,
2013-01-07 17:39:00,66.8,60.4,30.19,North,359,2.0,6.0,80,0.00,,OVC065,0.00,VWS V14.01,2013-01-07 22:39:00,
2013-01-07 17:44:00,66.7,60.3,30.19,NNW,345,0.0,8.0,80,0.00,,OVC065,0.00,VWS V14.01,2013-01-07 22:44:00,
2013-01-07 17:49:00,66.6,60.2,30.19,NNE,12,6.0,6.0,80,0.00,,OVC065,0.00,VWS V14.01,2013-01-07 22:49:00,
2013-01-07 17:55:00,66.5,60.2,30.19,NNW,341,4.0,8.0,80,0.00,,OVC065,0.00,VWS V14.01,2013-01-07 22:55:00,
2013-01-07 18:00:00,66.4,60.0,30.19,North,5,0.0,6.0,80,0.00,,OVC065,0.00,VWS V14.01,2013-01-07 23:00:00,
2013-01-07 18:05:00,66.3,60.0,30.19,NNW,345,4.0,8.0,80,0.00,,OVC037,0.00,VWS V14.01,2013-01-07 23:05:00,
2013-01-07 18:10:00,66.2,60.2,30.19,NNW,338,2.0,8.0,81,0.00,,OVC037,0.00,VWS V14.01,2013-01-07 23:10:00,
2013-01-07 18:15:00,66.0,60.3,30.19,NW,324,0.0,0.0,82,0.00,,OVC037,0.00,VWS V14.01,2013-01-07 23:15:00,
2013-01-07 18:20:00,65.8,60.2,30.20,NW,326,2.0,2.0,82,0.00,,OVC037,0.00,VWS V14.01,2013-01-07 23:20:00,
2013-01-07 18:25:00,65.5,60.2,30.20,North,4,0.0,2.0,83,0.00,,OVC037,0.00,VWS V14.01,2013-01-07 23:25:00,
2013-01-07 18:30:00,65.2,60.2,30.20,NW,326,4.0,4.0,84,0.00,,OVC037,0.00,VWS V14.01,2013-01-07 23:30:00,
2013-01-07 18:35:00,65.0,60.0,30.20,NNW,341,2.0,6.0,84,0.00,,OVC037,0.00,VWS V14.01,2013-01-07 23:35:00,
2013-01-07 18:40:00,64.8,60.2,30.20,NNW,345,4.0,4.0,85,0.00,,OVC037,0.00,VWS V14.01,2013-01-07 23:40:00,
2013-01-07 18:45:00,64.7,60.4,30.20,NNW,329,2.0,4.0,86,0.00,,OVC037,0.00,VWS V14.01,2013-01-07 23:45:00,
2013-01-07 18:50:00,64.6,60.3,30.20,North,7,0.0,2.0,86,0.00,,OVC037,0.00,VWS V14.01,2013-01-07 23:50:00,
2013-01-07 18:56:00,64.6,60.3,30.20,NNW,345,0.0,2.0,86,0.00,,OVC037,0.00,VWS V14.01,2013-01-07 23:56:00,
2013-01-07 19:01:00,64.5,60.5,30.20,North,1,0.0,2.0,87,0.00,,OVC035,0.00,VWS V14.01,2013-01-08 00:01:00,
2013-01-07 19:06:00,64.5,60.5,30.20,North,10,4.0,6.0,87,0.00,,OVC035,0.00,VWS V14.01,2013-01-08 00:06:00,
2013-01-07 19:11:00,64.5,60.9,30.20,North,359,2.0,4.0,88,0.00,,OVC035,0.00,VWS V14.01,2013-01-08 00:11:00,
2013-01-07 19:16:00,64.4,60.8,30.20,NNE,18,2.0,4.0,88,0.00,,OVC035,0.00,VWS V14.01,2013-01-08 00:16:00,
2013-01-07 19:21:00,64.4,60.8,30.20,North,359,2.0,4.0,88,0.00,,OVC035,0.00,VWS V14.01,2013-01-08 00:21:00,
2013-01-07 19:26:00,64.4,60.8,30.20,North,6,0.0,2.0,88,0.00,,OVC035,0.00,VWS V14.01,2013-01-08 00:26:00,
2013-01-07 19:32:00,64.3,61.0,30.20,NNE,13,0.0,4.0,89,0.00,,OVC035,0.00,VWS V14.01,2013-01-08 00:32:00,
2013-01-07 19:37:00,64.3,61.0,30.20,NNE,13,0.0,2.0,89,0.00,,OVC035,0.00,VWS V14.01,2013-01-08 00:37:00,
2013-01-07 19:42:00,64.3,61.0,30.20,North,0,0.0,4.0,89,0.00,,OVC035,0.00,VWS V14.01,2013-01-08 00:42:00,
2013-01-07 19:47:00,64.3,61.0,30.20,North,355,0.0,0.0,89,0.00,,OVC035,0.00,VWS V14.01,2013-01-08 00:47:00,
2013-01-07 19:52:00,64.3,61.3,30.21,North,355,0.0,4.0,90,0.00,,OVC035,0.00,VWS V14.01,2013-01-08 00:52:00,
2013-01-07 19:57:00,64.3,61.3,30.21,North,355,0.0,2.0,90,0.00,,OVC035,0.00,VWS V14.01,2013-01-08 00:57:00,
2013-01-07 20:02:00,64.3,61.3,30.21,NNW,345,4.0,6.0,90,0.00,,OVC040,0.00,VWS V14.01,2013-01-08 01:02:00,
2013-01-07 20:07:00,64.3,61.3,30.21,NNW,345,2.0,4.0,90,0.00,,OVC040,0.00,VWS V14.01,2013-01-08 01:07:00,
2013-01-07 20:12:00,64.3,61.3,30.21,NNW,345,0.0,4.0,90,0.00,,OVC040,0.00,VWS V14.01,2013-01-08 01:12:00,
2013-01-07 20:18:00,64.4,61.4,30.21,NNW,345,0.0,2.0,90,0.00,,OVC040,0.00,VWS V14.01,2013-01-08 01:18:00,
2013-01-07 20:23:00,64.3,61.6,30.21,NNW,345,0.0,2.0,91,0.00,,OVC040,0.00,VWS V14.01,2013-01-08 01:23:00,
2013-01-07 20:28:00,64.3,61.6,30.21,NNW,345,0.0,4.0,91,0.00,,OVC040,0.00,VWS V14.01,2013-01-08 01:28:00,
2013-01-07 20:33:00,64.3,61.6,30.21,NNW,345,2.0,4.0,91,0.00,,OVC040,0.00,VWS V14.01,2013-01-08 01:33:00,
2013-01-07 20:38:00,64.3,61.6,30.21,NNW,345,2.0,2.0,91,0.00,,OVC040,0.00,VWS V14.01,2013-01-08 01:38:00,
2013-01-07 20:43:00,64.2,61.5,30.20,North,359,0.0,6.0,91,0.00,,OVC040,0.00,VWS V14.01,2013-01-08 01:43:00,
2013-01-07 20:48:00,64.1,61.4,30.20,North,359,2.0,4.0,91,0.00,,OVC040,0.00,VWS V14.01,2013-01-08 01:48:00,
2013-01-07 20:53:00,64.1,61.4,30.20,NNW,345,0.0,4.0,91,0.00,,OVC040,0.00,VWS V14.01,2013-01-08 01:53:00,
2013-01-07 20:58:00,64.1,61.7,30.20,North,0,0.0,2.0,92,0.00,,OVC040,0.00,VWS V14.01,2013-01-08 01:58:00,
2013-01-07 21:03:00,64.0,61.6,30.20,North,0,0.0,4.0,92,0.00,,OVC075,0.00,VWS V14.01,2013-01-08 02:03:00,
2013-01-07 21:09:00,64.0,61.6,30.20,North,355,2.0,2.0,92,0.00,,OVC075,0.00,VWS V14.01,2013-01-08 02:09:00,
2013-01-07 21:14:00,64.0,61.6,30.20,North,355,0.0,4.0,92,0.00,,OVC075,0.00,VWS V14.01,2013-01-08 02:14:00,
2013-01-07 21:19:00,64.0,61.6,30.20,North,355,0.0,0.0,92,0.00,,OVC075,0.00,VWS V14.01,2013-01-08 02:19:00,
2013-01-07 21:24:00,64.0,61.6,30.20,North,355,0.0,2.0,92,0.00,,OVC075,0.00,VWS V14.01,2013-01-08 02:24:00,
2013-01-07 21:29:00,63.9,61.5,30.20,North,355,0.0,2.0,92,0.00,,OVC075,0.00,VWS V14.01,2013-01-08 02:29:00,
2013-01-07 21:34:00,63.9,61.5,30.20,North,355,0.0,2.0,92,0.00,,OVC075,0.00,VWS V14.01,2013-01-08 02:34:00,
2013-01-07 21:39:00,63.9,61.5,30.20,North,355,0.0,2.0,92,0.00,,OVC075,0.00,VWS V14.01,2013-01-08 02:39:00,
2013-01-07 21:44:00,63.9,61.5,30.20,North,355,0.0,2.0,92,0.00,,OVC075,0.00,VWS V14.01,2013-01-08 02:44:00,
2013-01-07 21:49:00,63.9,61.5,30.20,North,355,0.0,4.0,92,0.00,,OVC075,0.00,VWS V14.01,2013-01-08 02:49:00,
2013-01-07 21:54:00,63.9,61.5,30.20,North,355,0.0,2.0,92,0.00,,OVC075,0.00,VWS V14.01,2013-01-08 02:54:00,
2013-01-07 22:00:00,63.9,61.5,30.20,North,355,0.0,4.0,92,0.00,,OVC075,0.00,VWS V14.01,2013-01-08 03:00:00,
2013-01-07 22:05:00,63.9,61.5,30.20,North,355,0.0,6.0,92,0.00,,-RA,0.00,VWS V14.01,2013-01-08 03:05:00,
2013-01-07 22:10:00,63.9,61.8,30.20,North,355,0.0,0.0,93,0.00,,-RA,0.00,VWS V14.01,2013-01-08 03:10:00,
2013-01-07 22:15:00,63.9,61.8,30.20,North,355,0.0,0.0,93,0.00,,-RA,0.00,VWS V14.01,2013-01-08 03:15:00,
2013-01-07 22:20:00,63.9,61.8,30.20,North,355,0.0,0.0,93,0.00,,-RA,0.00,VWS V14.01,2013-01-08 03:20:00,
2013-01-07 22:25:00,63.9,61.8,30.20,North,355,0.0,0.0,93,0.00,,-RA,0.00,VWS V14.01,2013-01-08 03:25:00,
2013-01-07 22:30:00,63.8,61.7,30.19,North,355,0.0,0.0,93,0.00,,-RA,0.00,VWS V14.01,2013-01-08 03:30:00,
2013-01-07 22:35:00,63.8,61.7,30.19,North,355,0.0,4.0,93,0.00,,-RA,0.00,VWS V14.01,2013-01-08 03:35:00,
2013-01-07 22:40:00,63.7,61.6,30.19,North,1,2.0,2.0,93,0.00,,-RA,0.00,VWS V14.01,2013-01-08 03:40:00,
2013-01-07 22:45:00,63.7,61.6,30.19,North,1,0.0,2.0,93,0.00,,-RA,0.00,VWS V14.01,2013-01-08 03:45:00,
2013-01-07 22:51:00,63.6,61.5,30.19,North,355,2.0,2.0,93,0.00,,-RA,0.00,VWS V14.01,2013-01-08 03:51:00,
2013-01-07 22:56:00,63.6,61.5,30.19,North,1,0.0,0.0,93,0.00,,-RA,0.00,VWS V14.01,2013-01-08 03:56:00,
2013-01-07 23:01:00,63.5,61.4,30.19,North,5,4.0,4.0,93,0.00,,BKN110,0.00,VWS V14.01,2013-01-08 04:01:00,
2013-01-07 23:06:00,63.4,61.3,30.19,North,5,0.0,2.0,93,0.00,,BKN110,0.00,VWS V14.01,2013-01-08 04:06:00,
2013-01-07 23:11:00,63.4,61.3,30.19,North,5,0.0,0.0,93,0.00,,BKN110,0.00,VWS V14.01,2013-01-08 04:11:00,
2013-01-07 23:16:00,63.3,61.5,30.19,North,4,0.0,2.0,94,0.00,,BKN110,0.00,VWS V14.01,2013-01-08 04:16:00,
2013-01-07 23:21:00,63.2,61.5,30.19,North,4,0.0,0.0,94,0.00,,BKN110,0.00,VWS V14.01,2013-01-08 04:21:00,
2013-01-07 23:26:00,63.2,61.5,30.19,North,4,4.0,4.0,94,0.00,,BKN110,0.00,VWS V14.01,2013-01-08 04:26:00,
2013-01-07 23:31:00,63.2,61.5,30.18,North,4,0.0,4.0,94,0.00,,BKN110,0.00,VWS V14.01,2013-01-08 04:31:00,
2013-01-07 23:37:00,63.1,61.3,30.18,North,4,2.0,2.0,94,0.00,,BKN110,0.00,VWS V14.01,2013-01-08 04:37:00,
2013-01-07 23:42:00,63.0,61.2,30.18,NNW,336,2.0,4.0,94,0.00,,BKN110,0.00,VWS V14.01,2013-01-08 04:42:00,
2013-01-07 23:47:00,63.0,61.2,30.18,NNW,336,0.0,2.0,94,0.00,,BKN110,0.00,VWS V14.01,2013-01-08 04:47:00,
2013-01-07 23:52:00,62.9,61.2,30.18,NNW,336,0.0,2.0,94,0.00,,BKN110,0.00,VWS V14.01,2013-01-08 04:52:00,
2013-01-07 23:57:00,62.8,61.0,30.18,NNW,336,0.0,0.0,94,0.00,,BKN110,0.00,VWS V14.01,2013-01-08 04:57:00,